Location: LDNL
(36.4545°S, 141.6685°E)
Time: 11:33:26
(UTC+10:00)

Tiros 1 despin weight - Pass Details

Date: 09 August 2022
Orbit: 590 x 639 km, 48.2° (Epoch: 23 September)

Event Time Altitude Azimuth Distance (km) Brightness Sun altitude
Rises 03:45:17 0° 258° (WSW) 2,941 - -44.0°
Reaches altitude 10° 03:48:04 10° 242° (WSW) 2,041 - -43.5°
Maximum altitude 03:51:44 22° 191° (S) 1,419 - -42.8°
Drops below altitude 10° 03:55:25 10° 140° (SE) 2,054 - -42.1°
Exits shadow 03:56:24 - 133° (SE) 2,353 ? -41.9°
Sets 03:58:14 0° 124° (SE) 2,965 ? -41.5°
